Location: Béaulencourt
(50.0796°N, 2.8795°E)
Time: 20:10:35
(UTC+00:00)

NOSS 2-2 (E) - Pass Details

Date: 20 January 2026
Orbit: 384 x 1721 km, 63.3° (Epoch: 16 February)

Event Time Altitude Azimuth Distance (km) Brightness Sun altitude
Rises 06:53:59 0° 218° (SW) 2,558 6.6 -7.0°
Reaches altitude 10° 06:56:16 10° 217° (SW) 1,563 5.5 -6.6°
Maximum altitude 06:59:35 78° 132° (SE) 415 2.9 -6.2°
Drops below altitude 10° 07:02:35 10° 45° (NE) 1,416 5.7 -5.7°
Sets 07:04:34 0° 44° (NE) 2,286 6.8 -5.4°
